[[{"header":{"parameterUnit":"m.s-1","parameterCategory":2,"la1":30.2991,"la2":30.254,"lo1":-89.0895,"lo2":-89.0444,"dy":0.0017,"dx":0.0017,"nx":28,"ny":28,"refTime":"2024-08-26T21:00:00:Z","depth":"0","parameterNumber":2,"parameterNumberName":"U-component_of_CURRENTS"},"data":[0,0,0,0,0,0,0,0,0,0,0,0,0,0,0,0,0,0,0,0,0,0,0,0,0,0,0,0,0,0,0,0,0,0,0,0,0,0,0,0,0,0,0,0,0,0,0,0,0,0,0,0,0,0,0,0,0,0,0.2418,0.2419,0,0.246,0.246,0.246,0.2454,0.2453,0.2453,0.2452,0.244,0.2441,0.2441,0,0,0,0,0,0,0,0,0,0,0,0,0,0.2359,0.236,0.2418,0.2419,0.2419,0.246,0.246,0.246,0.2454,0.2453,0.2453,0.2452,0.244,0.2441,0.2441,0,0,0,0,0,0,0,0,0,0,0,0,0,0.2388,0.236,0.2418,0.2423,0.2424,0.246,0.246,0.2461,0.2454,0.2453,0.2453,0.2452,0.244,0.244,0.2441,0.2455,0,0,0.2441,0.2441,0,0,0,0,0,0,0,0,0.2387,0.239,0.2422,0.2423,0.2424,0.2453,0.2435,0.2457,0.2454,0.244,0.2452,0.2452,0.2442,0.2442,0.2448,0.2455,0.2454,0.2441,0.2441,0.2441,0.2441,0,0,0,0,0,0,0,0.2385,0.2388,0.2431,0.2423,0.2424,0.2433,0.2436,0.244,0.2441,0.2441,0.2441,0.2451,0.2442,0.2448,0.2448,0.2454,0.2441,0.2441,0.2441,0.2441,0.25,0.2501,0,0,0,0,0,0,0.2385,0.2387,0.243,0.2433,0.2407,0.2435,0.2438,0.2442,0.2442,0.2443,0.2451,0.245,0.2448,0.2448,0.2447,0.2486,0.2441,0.2441,0.2442,0.2499,0.25,0.2502,0,0,0,0,0,0,0.2383,0.2388,0.2429,0.2413,0.2419,0.2437,0.2442,0.2444,0.2452,0.2451,0.245,0.2458,0.2448,0.2447,0.2462,0.2484,0.2442,0.2442,0.2497,0.2499,0.2501,0.2549,0,0,0,0,0,0,0.2381,0.2387,0.2388,0.2413,0.242,0.2457,0.2443,0.2445,0.246,0.2459,0.2457,0.2455,0.2447,0.2462,0.2462,0.2484,0.2442,0.2495,0.2498,0.25,0.2545,0.2552,0.2558,0,0,0,0,0,0.2379,0.239,0.2388,0.2393,0.2422,0.2458,0.2463,0.247,0.2461,0.2473,0.2473,0.2455,0.2479,0.2463,0.2463,0.2485,0.2494,0.2497,0.25,0.2542,0.2551,0.2558,0,0,0,0,0,0,0.2367,0.2391,0.2389,0.2406,0.2432,0.2458,0.2472,0.2475,0.2485,0.2481,0.2472,0.2471,0.2493,0.2486,0.2468,0.2512,0.2485,0.2488,0.2517,0.2525,0.2531,0.2543,0.2442,0,0,0,0,0,0.2365,0.2378,0.2404,0.242,0.2432,0.2451,0.2465,0.2473,0.2488,0.2491,0.2491,0.2495,0.2508,0.2512,0.2519,0.2542,0.2562,0.2558,0.2564,0.257,0.2581,0.2629,0.2641,0.2513,0.2513,0.2513,0,0,0.2363,0.2381,0.2387,0.2418,0.2436,0.2465,0.2457,0.2486,0.2509,0.2489,0.2514,0.2515,0.2519,0.2546,0.2556,0.2542,0.2622,0.2574,0.2578,0.2587,0.2634,0.2646,0.2657,0.2515,0.2515,0.2514,0,0,0.2379,0.2385,0.2403,0.2427,0.2461,0.2479,0.2488,0.2517,0.2526,0.2553,0.2548,0.2567,0.2579,0.2594,0.2601,0.2649,0.2654,0.2649,0.2691,0.2738,0.2749,0.2759,0.2822,0.2837,0.2653,0.2653,0.2653,0,0.2375,0.2401,0.2416,0.2445,0.2468,0.2486,0.2516,0.2536,0.2565,0.2581,0.2566,0.261,0.2605,0.2653,0.2669,0.2664,0.2697,0.2658,0.2747,0.2757,0.2766,0.2828,0.2844,0.2656,0.2655,0.2655,0.2655,0,0.2407,0.2428,0.2446,0.2484,0.2511,0.2544,0.2575,0.2599,0.261,0.2629,0.2672,0.2679,0.2708,0.271,0.2702,0.2769,0.2776,0.2748,0.2725,0.2782,0.2844,0.286,0.266,0.2659,0.2658,0.2657,0,0,0.2397,0.2455,0.246,0.2483,0.2534,0.2561,0.2606,0.2654,0.269,0.2711,0.2761,0.2783,0.279,0.28,0.28,0.2837,0.2931,0.2824,0.2825,0.2886,0.3058,0.3093,0.3113,0.2918,0.2921,0.2923,0.3083,0,0.2417,0.2468,0.2498,0.255,0.2578,0.2614,0.2655,0.2698,0.2736,0.2789,0.2809,0.2855,0.2825,0.2849,0.2883,0.2919,0.2972,0.2891,0.2996,0.3,0.3022,0.3132,0.2975,0.3107,0.3098,0.3101,0.3103,0,0.2437,0.2468,0.2517,0.258,0.2597,0.2632,0.2706,0.2748,0.2823,0.2854,0.2906,0.293,0.3,0.2958,0.3064,0.3017,0.3049,0.307,0.3076,0.3101,0.3063,0.3046,0.3136,0.3061,0.3127,0.3125,0.3123,0,0.2417,0.2485,0.2522,0.2544,0.2615,0.2646,0.2688,0.2762,0.2813,0.2907,0.296,0.3031,0.3087,0.3131,0.3186,0.3134,0.3306,0.3236,0.3303,0.3306,0.3191,0.318,0.3217,0.3321,0.332,0.332,0.3319,0,0.2424,0.2452,0.2515,0.2533,0.258,0.2636,0.2702,0.2757,0.2854,0.2934,0.2993,0.3081,0.3133,0.3231,0.3247,0.3356,0.3365,0.3351,0.3362,0.3207,0.3196,0.3138,0.3085,0.3326,0.3324,0.3323,0.3322,0,0.2389,0.2433,0.2476,0.2547,0.2569,0.2601,0.2699,0.2754,0.2853,0.2967,0.3007,0.315,0.3293,0.336,0.3465,0.3457,0.3446,0.3562,0.3395,0.3385,0.3352,0.3307,0.327,0.317,0.3661,0.3663,0.3665,0,0.2372,0.2391,0.2464,0.2487,0.2518,0.2575,0.2619,0.273,0.2799,0.3013,0.3069,0.3261,0.338,0.3572,0.3612,0.3697,0.3543,0.3587,0.3453,0.3377,0.3334,0.3188,0.3093,0.3324,0.3323,0.3322,0.3321,0,0.2331,0.2361,0.2393,0.2438,0.2484,0.2541,0.2618,0.267,0.2825,0.2938,0.311,0.3235,0.3468,0.3509,0.3653,0.3663,0.3409,0.3572,0.3513,0.3116,0.2935,0.2833,0.3211,0.3312,0.3313,0.3313,0.3314,0.3314,0.2288,0.2299,0.2342,0.2381,0.2431,0.2484,0.2499,0.2606,0.2708,0.2845,0.3037,0.3162,0.3319,0.3511,0.3529,0.3465,0.3424,0.3317,0.3288,0.3163,0.3002,0.3399,0.3498,0.3499,0.3501,0.3503,0.3504,0,0.2218,0.2246,0.2283,0.2319,0.2337,0.2401,0.2477,0.2475,0.2545,0.2719,0.2843,0.2999,0.3077,0.319,0.3254,0.317,0.298,0.3069,0.2779,0.2712,0.3087,0.3007,0.2978,0.2978,0.2978,0.2978,0.2978,0.2978,0.2185,0.2187,0.2212,0.2209,0.2236,0.2223,0.2243,0.2267,0.2345,0.243,0.2521,0.2652,0.2905,0.3035,0.2996,0.2916,0.2676,0.2567,0.2579,0.2803,0.282,0.2837,0.275,0.2668,0.2668,0.2045,0.2041,0.2037]},{"header":{"parameterUnit":"m.s-1","parameterCategory":2,"la1":30.2991,"la2":30.254,"lo1":-89.0895,"lo2":-89.0444,"dy":0.0017,"dx":0.0017,"nx":28,"ny":28,"refTime":"2024-08-26T21:00:00:Z","depth":"0","parameterNumber":3,"parameterNumberName":"V-component_of_CURRENTS"},"data":[0,0,0,0,0,0,0,0,0,0,0,0,0,0,0,0,0,0,0,0,0,0,0,0,0,0,0,0,0,0,0,0,0,0,0,0,0,0,0,0,0,0,0,0,0,0,0,0,0,0,0,0,0,0,0,0,0,0,-0.0555,-0.0556,0,-0.0596,-0.0596,-0.0596,-0.063,-0.0631,-0.0631,-0.0632,-0.0716,-0.0717,-0.0719,0,0,0,0,0,0,0,0,0,0,0,0,0,-0.0531,-0.0531,-0.0555,-0.0556,-0.0556,-0.0596,-0.0596,-0.0597,-0.063,-0.0631,-0.0631,-0.0632,-0.0715,-0.0717,-0.0719,0,0,0,0,0,0,0,0,0,0,0,0,0,-0.0553,-0.0531,-0.0555,-0.0578,-0.058,-0.0595,-0.0596,-0.0597,-0.063,-0.0631,-0.0631,-0.0632,-0.0714,-0.0717,-0.072,-0.0726,0,0,-0.0728,-0.073,0,0,0,0,0,0,0,0,-0.0552,-0.0554,-0.0574,-0.0576,-0.0579,-0.0609,-0.0618,-0.0642,-0.063,-0.0611,-0.0632,-0.0632,-0.0684,-0.0689,-0.0694,-0.073,-0.0733,-0.0729,-0.073,-0.0732,-0.0732,0,0,0,0,0,0,0,-0.055,-0.0553,-0.0571,-0.0575,-0.0578,-0.0594,-0.0598,-0.0623,-0.0644,-0.0613,-0.0615,-0.062,-0.0685,-0.0692,-0.0697,-0.0734,-0.0729,-0.0731,-0.0733,-0.0734,-0.0788,-0.0787,0,0,0,0,0,0,-0.0544,-0.0551,-0.057,-0.0572,-0.0567,-0.0594,-0.0598,-0.0599,-0.0643,-0.065,-0.0619,-0.0621,-0.0686,-0.0693,-0.07,-0.0711,-0.0732,-0.0734,-0.0736,-0.0788,-0.0788,-0.0787,0,0,0,0,0,0,-0.0543,-0.0545,-0.0568,-0.0563,-0.0567,-0.0594,-0.0594,-0.0599,-0.0605,-0.0648,-0.0656,-0.062,-0.0687,-0.0696,-0.0717,-0.0714,-0.0735,-0.0738,-0.0788,-0.0788,-0.0787,-0.0732,0,0,0,0,0,0,-0.0542,-0.0544,-0.0537,-0.0562,-0.0567,-0.0565,-0.0594,-0.0599,-0.0607,-0.061,-0.0651,-0.066,-0.0688,-0.0712,-0.072,-0.0719,-0.074,-0.0789,-0.0788,-0.0788,-0.0734,-0.073,-0.0726,0,0,0,0,0,-0.0541,-0.0521,-0.0536,-0.0539,-0.0558,-0.0564,-0.0567,-0.0589,-0.0606,-0.0599,-0.0631,-0.0658,-0.0715,-0.0714,-0.0723,-0.0723,-0.0789,-0.0788,-0.0788,-0.0736,-0.0731,-0.0726,0,0,0,0,0,0,-0.0501,-0.0524,-0.0541,-0.0528,-0.0543,-0.057,-0.056,-0.0584,-0.0603,-0.0604,-0.0653,-0.0663,-0.0681,-0.0708,-0.0706,-0.0737,-0.0757,-0.0758,-0.0715,-0.071,-0.0706,-0.0682,-0.0743,0,0,0,0,0,-0.0491,-0.0484,-0.0512,-0.05,-0.0504,-0.0534,-0.0539,-0.0554,-0.0577,-0.0586,-0.062,-0.0655,-0.0684,-0.0701,-0.0727,-0.0742,-0.0764,-0.0749,-0.0744,-0.0741,-0.0727,-0.0769,-0.0767,-0.0785,-0.0785,-0.0785,0,0,-0.0473,-0.0483,-0.048,-0.0492,-0.0503,-0.0497,-0.0537,-0.0534,-0.0534,-0.0592,-0.0599,-0.0639,-0.0684,-0.0701,-0.0712,-0.0724,-0.0745,-0.074,-0.0736,-0.0724,-0.0768,-0.0766,-0.0765,-0.0785,-0.0785,-0.0785,0,0,-0.0426,-0.044,-0.0419,-0.0428,-0.044,-0.046,-0.0458,-0.0485,-0.0499,-0.0513,-0.0559,-0.0594,-0.0634,-0.067,-0.0694,-0.0682,-0.072,-0.0694,-0.0657,-0.0698,-0.0697,-0.0696,-0.0708,-0.0709,-0.0695,-0.0695,-0.0695,0,-0.0406,-0.0384,-0.0412,-0.0395,-0.0394,-0.044,-0.0418,-0.0438,-0.0471,-0.0481,-0.0504,-0.0574,-0.0619,-0.0649,-0.0649,-0.0673,-0.0692,-0.0672,-0.0692,-0.0692,-0.0692,-0.0705,-0.0707,-0.0692,-0.0692,-0.0693,-0.0693,0,-0.0344,-0.0331,-0.0315,-0.0314,-0.0316,-0.0302,-0.0336,-0.0347,-0.0377,-0.0406,-0.0439,-0.0504,-0.0546,-0.0574,-0.061,-0.0635,-0.0645,-0.068,-0.0702,-0.0687,-0.0702,-0.0704,-0.0688,-0.0689,-0.069,-0.0691,0,0,-0.0293,-0.0277,-0.0272,-0.0258,-0.0272,-0.0267,-0.0267,-0.0282,-0.0283,-0.0333,-0.0341,-0.0413,-0.0456,-0.0485,-0.0545,-0.0588,-0.0612,-0.0629,-0.0633,-0.0635,-0.068,-0.0645,-0.0645,-0.0654,-0.0654,-0.0655,-0.0685,0,-0.0239,-0.0186,-0.0196,-0.0154,-0.0132,-0.0172,-0.0168,-0.0191,-0.0225,-0.0246,-0.0324,-0.0352,-0.0421,-0.0444,-0.0498,-0.0584,-0.0619,-0.0599,-0.0699,-0.0701,-0.0668,-0.0647,-0.059,-0.0609,-0.0688,-0.0688,-0.0689,0,-0.0174,-0.015,-0.0092,-0.0077,-0.0071,-0.0056,-0.0061,-0.0065,-0.0113,-0.0142,-0.0192,-0.025,-0.0319,-0.0381,-0.0506,-0.049,-0.0571,-0.0641,-0.0645,-0.0631,-0.0671,-0.0641,-0.0611,-0.0785,-0.0693,-0.0693,-0.0693,0,-0.0117,-0.0079,-0.0028,-0.0022,-0.0012,0.0004,0.0001,-0.0028,-0.0024,-0.0075,-0.0076,-0.0172,-0.0205,-0.0329,-0.0462,-0.0488,-0.0591,-0.065,-0.0689,-0.0687,-0.0666,-0.0661,-0.081,-0.0729,-0.0729,-0.0729,-0.0728,0,-0.0053,-0.0018,0.0005,0.003,0.0085,0.0065,0.0106,0.0082,0.0065,0.0095,-0.0016,-0.0006,-0.0195,-0.0274,-0.042,-0.0541,-0.0557,-0.0665,-0.0692,-0.0643,-0.0635,-0.0809,-0.0897,-0.073,-0.0729,-0.0729,-0.0729,0,0.0006,0.0021,0.0075,0.0102,0.0118,0.0155,0.0184,0.0208,0.0175,0.0214,0.0208,0.0123,0.0034,-0.0143,-0.0325,-0.0459,-0.0674,-0.0641,-0.0551,-0.0566,-0.0769,-0.0854,-0.0997,-0.1061,-0.0692,-0.0692,-0.0691,0,0.0044,0.0082,0.0134,0.0175,0.0194,0.0242,0.0281,0.0267,0.0304,0.0312,0.0347,0.0279,0.0275,0.0025,-0.0218,-0.0438,-0.0623,-0.0555,-0.0604,-0.0755,-0.0873,-0.0949,-0.0999,-0.0554,-0.0552,-0.0551,-0.055,0,0.0111,0.0128,0.0172,0.0255,0.0313,0.0375,0.0433,0.0484,0.0494,0.0552,0.0624,0.0629,0.0413,0.0227,-0.0088,-0.0257,-0.0648,-0.0533,-0.073,-0.0795,-0.085,-0.093,-0.055,-0.0538,-0.0539,-0.054,-0.054,-0.0541,0.0159,0.0202,0.0262,0.0345,0.0414,0.0509,0.0585,0.067,0.0782,0.0899,0.087,0.0935,0.0612,0.0209,-0.006,-0.052,-0.0554,-0.0679,-0.0773,-0.084,-0.0894,-0.0463,-0.046,-0.0461,-0.0462,-0.0462,-0.0463,0,0.0226,0.0273,0.0348,0.0451,0.0546,0.0564,0.0694,0.0795,0.0979,0.1102,0.12,0.1113,0.0717,0.0264,-0.0354,-0.071,-0.0855,-0.092,-0.1046,-0.1089,-0.0737,-0.0725,-0.0731,-0.0731,-0.0731,-0.0731,-0.0731,-0.0731,0.0264,0.0349,0.0388,0.0555,0.0631,0.0776,0.0866,0.1034,0.1161,0.1361,0.1438,0.1445,0.1099,-0.0038,-0.0853,-0.104,-0.1303,-0.1332,-0.1501,-0.1298,-0.1284,-0.1272,-0.1285,-0.1408,-0.1409,-0.1802,-0.1806,-0.1809]}],[{"header":{"parameterUnit":"m.s-1","parameterCategory":2,"la1":30.2991,"la2":30.254,"lo1":-89.0895,"lo2":-89.0444,"dy":0.0017,"dx":0.0017,"nx":28,"ny":28,"refTime":"2024-08-26T21:00:00:Z","depth":"2","parameterNumber":2,"parameterNumberName":"U-component_of_CURRENTS"},"data":[0,0,0,0,0,0,0,0,0,0,0,0,0,0,0,0,0,0,0,0,0,0,0,0,0,0,0,0,0,0,0,0,0,0,0,0,0,0,0,0,0,0,0,0,0,0,0,0,0,0,0,0,0,0,0,0,0,0,0.2179,0.218,0,0.2215,0.2215,0.2215,0.2218,0.2218,0.2218,0.2218,0.2234,0.2234,0.2235,0,0,0,0,0,0,0,0,0,0,0,0,0,0.2123,0.2123,0.2179,0.218,0.2181,0.2215,0.2215,0.2215,0.2218,0.2218,0.2218,0.2218,0.2234,0.2234,0.2235,0,0,0,0,0,0,0,0,0,0,0,0,0,0.2147,0.2123,0.2179,0.219,0.2192,0.2215,0.2215,0.2215,0.2218,0.2218,0.2218,0.2218,0.2234,0.2234,0.2235,0.2237,0,0,0.2236,0.2237,0,0,0,0,0,0,0,0,0.2146,0.2148,0.2187,0.2189,0.2191,0.2216,0.2201,0.2223,0.2218,0.2203,0.2218,0.2218,0.2229,0.223,0.223,0.2238,0.2238,0.2236,0.2237,0.2237,0.2237,0,0,0,0,0,0,0,0.2144,0.2147,0.2189,0.2189,0.2191,0.2197,0.22,0.2205,0.2211,0.2204,0.2206,0.2217,0.2229,0.223,0.2231,0.2239,0.2236,0.2237,0.2237,0.2238,0.2296,0.2297,0,0,0,0,0,0,0.2149,0.2145,0.2188,0.219,0.2174,0.2198,0.2201,0.2204,0.2212,0.2214,0.2217,0.2217,0.2229,0.223,0.2231,0.2283,0.2237,0.2238,0.2238,0.2294,0.2296,0.2297,0,0,0,0,0,0,0.2147,0.2152,0.2186,0.2173,0.2178,0.2199,0.2203,0.2205,0.2216,0.2223,0.2224,0.2228,0.2229,0.223,0.2251,0.2282,0.2238,0.2238,0.2293,0.2295,0.2296,0.2356,0,0,0,0,0,0,0.2145,0.2151,0.2157,0.2173,0.218,0.2209,0.2203,0.2206,0.2225,0.2226,0.2232,0.2233,0.2229,0.225,0.2251,0.2282,0.2239,0.2291,0.2294,0.2296,0.2352,0.2359,0.2365,0,0,0,0,0,0.2143,0.2149,0.2157,0.2163,0.2186,0.221,0.2214,0.2226,0.2226,0.2234,0.2242,0.2233,0.2265,0.2251,0.2253,0.2284,0.229,0.2293,0.2296,0.2349,0.2358,0.2365,0,0,0,0,0,0,0.2118,0.2151,0.216,0.2172,0.2197,0.2213,0.2224,0.2233,0.2245,0.2248,0.2245,0.2247,0.2277,0.2271,0.2256,0.2307,0.2278,0.2281,0.2318,0.2326,0.2333,0.2341,0.2239,0,0,0,0,0,0.212,0.2139,0.2165,0.2178,0.219,0.2209,0.2221,0.2235,0.2249,0.2254,0.226,0.2271,0.2287,0.2299,0.2306,0.2333,0.2348,0.2355,0.2362,0.2367,0.2375,0.2427,0.2439,0.2306,0.2306,0.2306,0,0,0.2116,0.2136,0.2147,0.2176,0.2192,0.2215,0.2215,0.2242,0.2265,0.2254,0.2282,0.2291,0.2298,0.2331,0.2344,0.2332,0.2415,0.2371,0.2376,0.2381,0.2431,0.2444,0.2456,0.2308,0.2307,0.2307,0,0,0.212,0.2134,0.2154,0.2175,0.2212,0.2227,0.2238,0.2265,0.2281,0.2309,0.2314,0.2343,0.2357,0.2379,0.2389,0.2435,0.2445,0.2441,0.2487,0.2537,0.2549,0.2559,0.2603,0.2617,0.2449,0.2449,0.2449,0,0.2123,0.2142,0.2163,0.2187,0.221,0.2233,0.226,0.2279,0.2312,0.2336,0.2324,0.2383,0.2381,0.2442,0.2458,0.2452,0.2482,0.2457,0.2547,0.2558,0.2567,0.2609,0.2624,0.2452,0.2452,0.2451,0.2451,0,0.2138,0.2161,0.2172,0.2213,0.2238,0.2266,0.23,0.2332,0.2351,0.2374,0.2435,0.2447,0.2488,0.2494,0.2487,0.2566,0.2566,0.2548,0.2529,0.2585,0.2625,0.2639,0.2457,0.2455,0.2454,0.2454,0,0,0.2134,0.2179,0.2185,0.2207,0.2258,0.2278,0.2329,0.2382,0.243,0.2458,0.2523,0.255,0.2572,0.2586,0.26,0.2638,0.2725,0.2628,0.2629,0.2674,0.2848,0.2787,0.2797,0.2732,0.2735,0.2737,0.2852,0,0.2147,0.2188,0.2214,0.2257,0.228,0.2326,0.2371,0.2424,0.2473,0.254,0.2575,0.2631,0.2605,0.2645,0.2683,0.2718,0.2764,0.2696,0.2784,0.2787,0.2729,0.2811,0.2588,0.2667,0.2865,0.2868,0.2869,0,0.2153,0.2182,0.2224,0.2286,0.2302,0.2338,0.243,0.2476,0.2572,0.262,0.2694,0.2722,0.2799,0.2761,0.2861,0.2825,0.2845,0.2859,0.2864,0.2796,0.2752,0.2641,0.2685,0.2892,0.2891,0.2889,0.2887,0,0.2129,0.2189,0.2223,0.2242,0.2315,0.2357,0.2404,0.2499,0.2563,0.2683,0.2751,0.2833,0.2902,0.2935,0.296,0.2928,0.306,0.3016,0.2983,0.2979,0.2798,0.2774,0.3089,0.3089,0.3089,0.3089,0.3088,0,0.2123,0.2151,0.2216,0.2232,0.2286,0.2347,0.2436,0.2501,0.2628,0.2709,0.2791,0.2886,0.2952,0.3024,0.3017,0.3054,0.3112,0.3014,0.3014,0.2812,0.2789,0.2981,0.2967,0.3093,0.3092,0.3091,0.309,0,0.2082,0.2126,0.2167,0.2246,0.2272,0.231,0.2439,0.2509,0.2636,0.2757,0.28,0.296,0.3053,0.3096,0.3175,0.314,0.3162,0.3155,0.2913,0.2881,0.3032,0.302,0.3139,0.3138,0.3137,0.3136,0.3136,0,0.2059,0.2077,0.2155,0.2183,0.222,0.2298,0.2356,0.2493,0.2568,0.2789,0.2832,0.2994,0.3049,0.3157,0.3148,0.3149,0.318,0.2942,0.2826,0.3054,0.3043,0.3031,0.302,0.2617,0.2612,0.2608,0.2605,0,0.2016,0.2052,0.2085,0.2136,0.2193,0.2254,0.2343,0.2402,0.2566,0.2656,0.2774,0.2841,0.2994,0.2916,0.2965,0.2927,0.2917,0.2862,0.319,0.2632,0.257,0.2555,0.256,0.257,0.2573,0.2576,0.2578,0.2579,0.1982,0.1988,0.2036,0.2078,0.2136,0.2172,0.2191,0.2279,0.2347,0.2442,0.2597,0.2624,0.2714,0.2666,0.2605,0.2588,0.277,0.2632,0.2641,0.2655,0.2568,0.2507,0.2479,0.2482,0.2485,0.2487,0.2489,0,0.191,0.1932,0.1975,0.2009,0.2024,0.2092,0.2147,0.2128,0.2127,0.2247,0.2291,0.2167,0.2152,0.2245,0.2175,0.2192,0.214,0.2096,0.2003,0.2041,0.2074,0.1953,0.1703,0.1701,0.1698,0.1695,0,0,0.1873,0.1871,0.1889,0.1876,0.1908,0.1885,0.1884,0.1853,0.1884,0.185,0.1864,0.203,0.2167,0.1888,0.1879,0.1776,0.1879,0.171,0.2348,0.2276,0.2304,0.2406,0.2266,0,0,0,0,0]},{"header":{"parameterUnit":"m.s-1","parameterCategory":2,"la1":30.2991,"la2":30.254,"lo1":-89.0895,"lo2":-89.0444,"dy":0.0017,"dx":0.0017,"nx":28,"ny":28,"refTime":"2024-08-26T21:00:00:Z","depth":"2","parameterNumber":3,"parameterNumberName":"V-component_of_CURRENTS"},"data":[0,0,0,0,0,0,0,0,0,0,0,0,0,0,0,0,0,0,0,0,0,0,0,0,0,0,0,0,0,0,0,0,0,0,0,0,0,0,0,0,0,0,0,0,0,0,0,0,0,0,0,0,0,0,0,0,0,0,-0.0012,-0.0013,0,-0.0052,-0.0053,-0.0053,-0.0098,-0.0098,-0.0099,-0.0099,-0.0208,-0.0211,-0.0213,0,0,0,0,0,0,0,0,0,0,0,0,0,-0.0002,-0.0002,-0.0012,-0.0013,-0.0013,-0.0052,-0.0053,-0.0053,-0.0097,-0.0098,-0.0099,-0.01,-0.0208,-0.021,-0.0213,0,0,0,0,0,0,0,0,0,0,0,0,0,-0.0021,-0.0002,-0.0012,-0.0039,-0.0042,-0.0052,-0.0053,-0.0053,-0.0097,-0.0098,-0.0099,-0.01,-0.0207,-0.021,-0.0214,-0.0218,0,0,-0.0224,-0.0226,0,0,0,0,0,0,0,0,-0.002,-0.0022,-0.0035,-0.0038,-0.0041,-0.007,-0.0089,-0.0112,-0.0097,-0.0077,-0.0099,-0.01,-0.0168,-0.0174,-0.018,-0.0223,-0.0227,-0.0225,-0.0227,-0.0228,-0.0229,0,0,0,0,0,0,0,-0.0019,-0.002,-0.0029,-0.0035,-0.0039,-0.0059,-0.0063,-0.0093,-0.0119,-0.0079,-0.0082,-0.0085,-0.017,-0.0176,-0.0183,-0.0229,-0.0225,-0.0228,-0.023,-0.0231,-0.0298,-0.0297,0,0,0,0,0,0,-0.001,-0.0019,-0.0027,-0.003,-0.0032,-0.0058,-0.0062,-0.006,-0.0117,-0.0126,-0.0084,-0.0087,-0.017,-0.0179,-0.0187,-0.0213,-0.0228,-0.0232,-0.0234,-0.0298,-0.0298,-0.0297,0,0,0,0,0,0,-0.0009,-0.001,-0.0026,-0.0025,-0.0029,-0.0057,-0.0055,-0.0061,-0.0072,-0.012,-0.0131,-0.009,-0.0171,-0.0182,-0.0216,-0.0217,-0.0233,-0.0236,-0.0298,-0.0298,-0.0297,-0.0253,0,0,0,0,0,0,-0.0009,-0.0009,-0.0007,-0.0024,-0.0028,-0.003,-0.0054,-0.0061,-0.0072,-0.0076,-0.0129,-0.0139,-0.0172,-0.021,-0.0219,-0.0222,-0.0239,-0.0299,-0.0298,-0.0297,-0.0255,-0.0251,-0.0248,0,0,0,0,0,-0.0008,0.001,-0.0006,-0.0008,-0.0023,-0.0029,-0.0033,-0.0058,-0.0071,-0.0072,-0.0109,-0.0138,-0.0213,-0.0213,-0.0224,-0.0227,-0.0299,-0.0298,-0.0298,-0.0257,-0.0252,-0.0248,0,0,0,0,0,0,0.0022,0.0007,-0.0012,0.0001,-0.0016,-0.0037,-0.0034,-0.0054,-0.0081,-0.0088,-0.0136,-0.0149,-0.0178,-0.0205,-0.0204,-0.0243,-0.026,-0.0261,-0.0225,-0.0221,-0.0217,-0.0193,-0.0242,0,0,0,0,0,0.0028,0.0031,0.0011,0.0018,0.0016,-0.0011,-0.0018,-0.0036,-0.0061,-0.0073,-0.0111,-0.0149,-0.018,-0.0203,-0.0233,-0.0256,-0.0277,-0.0264,-0.026,-0.0257,-0.0244,-0.0282,-0.0281,-0.0294,-0.0294,-0.0295,0,0,0.0037,0.0032,0.003,0.0023,0.0011,0.0015,-0.0017,-0.0021,-0.0025,-0.0082,-0.0097,-0.0137,-0.0182,-0.0207,-0.0223,-0.0234,-0.0262,-0.0256,-0.0253,-0.0241,-0.0282,-0.028,-0.0279,-0.0294,-0.0294,-0.0294,0,0,0.0068,0.0058,0.0072,0.0063,0.0048,0.0035,0.0035,0.0012,-0.0005,-0.0027,-0.0068,-0.0103,-0.0152,-0.0183,-0.0206,-0.0198,-0.0239,-0.0213,-0.0182,-0.022,-0.022,-0.0219,-0.0235,-0.0236,-0.0215,-0.0215,-0.0215,0,0.0074,0.0095,0.0074,0.0087,0.0086,0.0049,0.0064,0.0045,0.0009,-0.0,-0.0026,-0.0094,-0.0136,-0.0166,-0.0166,-0.019,-0.0213,-0.0197,-0.0216,-0.0216,-0.0216,-0.0233,-0.0235,-0.0213,-0.0213,-0.0214,-0.0214,0,0.0118,0.0127,0.014,0.0141,0.0137,0.0145,0.012,0.0107,0.008,0.0057,0.0021,-0.0041,-0.008,-0.0104,-0.0136,-0.016,-0.0175,-0.0205,-0.0226,-0.0212,-0.023,-0.0233,-0.021,-0.0211,-0.0211,-0.0212,0,0,0.0148,0.0164,0.0167,0.0178,0.0167,0.0173,0.0169,0.0159,0.0163,0.0108,0.0106,0.0036,-0.0001,-0.0028,-0.0082,-0.0121,-0.0147,-0.0162,-0.0165,-0.0174,-0.0219,-0.0219,-0.0222,-0.0189,-0.0189,-0.0189,-0.0227,0,0.0185,0.0226,0.0221,0.0253,0.0274,0.0242,0.0248,0.0229,0.0202,0.0189,0.0118,0.0094,0.0028,0.0006,-0.0045,-0.0117,-0.0154,-0.0132,-0.0232,-0.0234,-0.0235,-0.0226,-0.0202,-0.0233,-0.023,-0.0231,-0.0231,0,0.0235,0.0256,0.0298,0.0318,0.0325,0.0336,0.0341,0.0338,0.0306,0.0282,0.0235,0.0183,0.0122,0.0062,-0.0056,-0.0043,-0.012,-0.0182,-0.0186,-0.0201,-0.024,-0.0249,-0.0239,-0.0237,-0.0236,-0.0236,-0.0236,0,0.0281,0.0313,0.0352,0.0357,0.0371,0.0383,0.0387,0.037,0.0383,0.0344,0.0348,0.0256,0.0224,0.0105,-0.0022,-0.0043,-0.0145,-0.0192,-0.0263,-0.0264,-0.0268,-0.0268,-0.0271,-0.0271,-0.0271,-0.0271,-0.0271,0,0.0333,0.0362,0.0379,0.0399,0.0453,0.0438,0.0482,0.0469,0.0464,0.0504,0.0403,0.0414,0.0231,0.015,0.0014,-0.012,-0.0119,-0.0246,-0.0274,-0.025,-0.0248,-0.0274,-0.0274,-0.0272,-0.0272,-0.0272,-0.0272,0,0.0383,0.0391,0.0438,0.0462,0.0479,0.0517,0.0557,0.0586,0.0569,0.0616,0.0611,0.0534,0.0429,0.0251,0.0074,-0.0054,-0.0195,-0.0244,-0.0191,-0.0212,-0.0297,-0.0294,-0.033,-0.033,-0.033,-0.033,-0.0331,0,0.0414,0.0444,0.0491,0.0529,0.0546,0.0597,0.0638,0.0641,0.0688,0.0708,0.0749,0.0659,0.0619,0.0358,0.0107,-0.0127,-0.0168,-0.0249,-0.0293,-0.0279,-0.0304,-0.03,-0.0297,-0.0279,-0.0278,-0.0278,-0.0278,0,0.0472,0.0484,0.0523,0.06,0.0656,0.0726,0.0791,0.0848,0.0873,0.0912,0.0961,0.0928,0.0679,0.0439,0.0113,-0.0039,-0.0216,-0.0252,-0.0257,-0.0265,-0.0234,-0.0257,-0.0255,-0.0276,-0.0277,-0.0277,-0.0277,-0.0277,0.0515,0.0554,0.0604,0.0681,0.0751,0.0853,0.0921,0.0998,0.1092,0.115,0.1118,0.1059,0.0787,0.0361,0.0089,-0.0201,-0.0196,-0.03,-0.03,-0.03,-0.0284,-0.0256,-0.0298,-0.0298,-0.0299,-0.0299,-0.0299,0,0.0572,0.0612,0.0682,0.0776,0.0862,0.0891,0.1023,0.1088,0.1211,0.1244,0.1253,0.1002,0.0728,0.0417,-0.0019,-0.0271,-0.0295,-0.0338,-0.0323,-0.0322,-0.0322,-0.0308,-0.0328,-0.0328,-0.0329,-0.033,0,0,0.0603,0.0677,0.071,0.0857,0.0926,0.1052,0.1134,0.1226,0.1279,0.131,0.1266,0.1164,0.0808,0.049,0.0146,-0.0099,-0.015,-0.0137,-0.0085,-0.0025,-0.0022,-0.0268,-0.0241,0,0,0,0,0]}],[{"header":{"parameterUnit":"m.s-1","parameterCategory":2,"la1":30.2991,"la2":30.254,"lo1":-89.0895,"lo2":-89.0444,"dy":0.0017,"dx":0.0017,"nx":28,"ny":28,"refTime":"2024-08-26T21:00:00:Z","depth":"4","parameterNumber":2,"parameterNumberName":"U-component_of_CURRENTS"},"data":[0,0,0,0,0,0,0,0,0,0,0,0,0,0,0,0,0,0,0,0,0,0,0,0,0,0,0,0,0,0,0,0,0,0,0,0,0,0,0,0,0,0,0,0,0,0,0,0,0,0,0,0,0,0,0,0,0,0,0.1196,0.1197,0,0.1275,0.1276,0.1277,0.1325,0.1325,0.1325,0.1326,0.1378,0.1379,0.138,0,0,0,0,0,0,0,0,0,0,0,0,0,0.1073,0.1075,0.1196,0.1197,0.1198,0.1275,0.1276,0.1277,0.1325,0.1325,0.1325,0.1326,0.1377,0.1379,0.138,0,0,0,0,0,0,0,0,0,0,0,0,0,0.1136,0.1075,0.1196,0.1232,0.1236,0.1275,0.1276,0.1277,0.1325,0.1325,0.1325,0.1326,0.1377,0.1379,0.138,0.1381,0,0,0.1385,0.1386,0,0,0,0,0,0,0,0,0.1132,0.114,0.1226,0.123,0.1234,0.1291,0.1252,0.1311,0.1324,0.129,0.1326,0.1326,0.1347,0.1351,0.1364,0.1383,0.1385,0.1385,0.1386,0.1387,0.1388,0,0,0,0,0,0,0,0.1128,0.1137,0.1227,0.1227,0.1232,0.1239,0.1249,0.1263,0.1313,0.1293,0.1297,0.1307,0.1349,0.1362,0.1365,0.1386,0.1385,0.1387,0.1388,0.1388,0.149,0.1492,0,0,0,0,0,0,0.112,0.1133,0.1224,0.1229,0.1184,0.1241,0.1252,0.1272,0.1314,0.1321,0.1306,0.1309,0.1359,0.1363,0.1367,0.1439,0.1387,0.1389,0.139,0.1488,0.149,0.1492,0,0,0,0,0,0,0.1118,0.1128,0.1221,0.1183,0.1195,0.1243,0.1265,0.1273,0.1318,0.1325,0.1332,0.1347,0.136,0.1365,0.1408,0.1438,0.1389,0.1391,0.1486,0.1489,0.1491,0.1538,0,0,0,0,0,0,0.1114,0.1127,0.1151,0.1183,0.1197,0.1262,0.1265,0.1274,0.1322,0.1327,0.1361,0.1364,0.136,0.1405,0.1409,0.144,0.1392,0.1484,0.1487,0.149,0.1534,0.1541,0.1548,0,0,0,0,0,0.1109,0.1134,0.1152,0.1163,0.1225,0.1263,0.1272,0.1306,0.1324,0.1348,0.1374,0.1365,0.1429,0.1408,0.1412,0.1444,0.1483,0.1487,0.149,0.1531,0.154,0.1548,0,0,0,0,0,0,0.1095,0.1142,0.1162,0.1203,0.124,0.1272,0.1303,0.1325,0.1366,0.1381,0.1385,0.1391,0.1442,0.1439,0.1416,0.1484,0.1455,0.146,0.1485,0.1493,0.15,0.1497,0.1393,0,0,0,0,0,0.1102,0.1135,0.1178,0.1212,0.1237,0.1278,0.1304,0.1329,0.1362,0.1383,0.1405,0.1431,0.1456,0.1472,0.1493,0.1527,0.1532,0.1552,0.1559,0.1565,0.1567,0.1607,0.1617,0.1505,0.1505,0.1505,0,0,0.1105,0.1137,0.1156,0.1212,0.1248,0.1285,0.1296,0.1347,0.138,0.138,0.1441,0.1461,0.1473,0.1515,0.1537,0.1518,0.1601,0.1569,0.1574,0.1573,0.1612,0.1623,0.1632,0.1508,0.1507,0.1507,0,0,0.1118,0.1161,0.1193,0.1229,0.1288,0.1311,0.1334,0.1387,0.1419,0.1469,0.1483,0.1522,0.156,0.1574,0.1584,0.1642,0.164,0.1657,0.1686,0.1725,0.1734,0.1742,0.1765,0.1775,0.1656,0.1656,0.1656,0,0.1121,0.117,0.1208,0.1249,0.1282,0.1327,0.1368,0.1404,0.1463,0.1487,0.1496,0.1572,0.1584,0.163,0.1652,0.1657,0.1677,0.165,0.1733,0.1741,0.1749,0.177,0.178,0.1659,0.1658,0.1658,0.1658,0,0.1157,0.1203,0.1228,0.1293,0.1331,0.1377,0.1426,0.147,0.151,0.1538,0.1607,0.1633,0.1679,0.1689,0.1688,0.1753,0.175,0.174,0.1708,0.1763,0.1782,0.1792,0.1662,0.1662,0.1661,0.166,0,0,0.1147,0.1235,0.1249,0.1279,0.1362,0.1389,0.1452,0.151,0.1549,0.1608,0.166,0.1711,0.1741,0.1756,0.1772,0.1797,0.1868,0.1797,0.1798,0.1813,0.1956,0.1849,0.1849,0.1881,0.1883,0.1884,0.1948,0,0.117,0.1238,0.1284,0.1346,0.1384,0.144,0.1488,0.1544,0.1594,0.1652,0.1696,0.1755,0.1764,0.18,0.1835,0.1867,0.1896,0.1851,0.1906,0.1907,0.18,0.1858,0.1891,0.1955,0.1957,0.1959,0.196,0,0.1193,0.1235,0.1304,0.1367,0.1392,0.1438,0.1517,0.157,0.1651,0.1695,0.1767,0.1805,0.1881,0.187,0.1962,0.1941,0.1959,0.1965,0.1968,0.1857,0.1819,0.1889,0.1977,0.1976,0.1975,0.1973,0.1972,0,0.1158,0.1243,0.1294,0.1323,0.1408,0.1451,0.1506,0.1588,0.1637,0.174,0.1785,0.1873,0.1939,0.1984,0.2029,0.201,0.2104,0.2076,0.1991,0.1984,0.2038,0.2029,0.2127,0.2127,0.2127,0.2127,0.2127,0,0.1153,0.1194,0.1286,0.1314,0.1371,0.1443,0.1512,0.1578,0.1675,0.1726,0.1824,0.1872,0.1975,0.2038,0.2057,0.2066,0.2142,0.2005,0.1998,0.2057,0.2049,0.2045,0.2035,0.2129,0.2129,0.2128,0.2128,0,0.1111,0.1175,0.1231,0.1326,0.1359,0.1407,0.1516,0.1551,0.1668,0.1745,0.1787,0.1907,0.1992,0.2065,0.2136,0.2096,0.2107,0.2085,0.2153,0.2147,0.1949,0.1941,0.199,0.1987,0.1984,0.1982,0.198,0,0.1095,0.1122,0.1227,0.1258,0.1311,0.1387,0.1428,0.1543,0.1587,0.1739,0.1764,0.1889,0.1954,0.1982,0.2061,0.21,0.2074,0.2067,0.1992,0.195,0.1938,0.1934,0.1929,0.1976,0.1975,0.1974,0.1974,0,0.1056,0.1106,0.115,0.1213,0.1266,0.1309,0.1388,0.1407,0.1533,0.1647,0.1707,0.1756,0.1845,0.1907,0.1965,0.1978,0.2063,0.2038,0.2042,0.1972,0.1934,0.1923,0.1922,0.1964,0.1966,0.1967,0.1967,0,0.1027,0.1042,0.1102,0.115,0.1205,0.1218,0.1264,0.1317,0.1378,0.155,0.156,0.1695,0.1815,0.1844,0.1887,0.1911,0.1874,0.1806,0.1822,0.1833,0.1754,0.1681,0.1635,0,0,0,0,0,0.0987,0.0991,0.1026,0.1065,0.1113,0.1149,0.1226,0.1273,0.139,0.1397,0.1481,0.1553,0.1628,0.1697,0.1692,0.1816,0.1879,0.18,0.1807,0.1913,0.1924,0.1847,0,0,0,0,0,0,0.0957,0.0987,0.0997,0.0985,0.0996,0.1032,0.1076,0.1153,0.117,0.1303,0.1357,0.1468,0.1569,0.1626,0.1667,0.169,0.1664,0.1893,0.189,0.1907,0.1917,0.1926,0.185,0,0,0,0,0]},{"header":{"parameterUnit":"m.s-1","parameterCategory":2,"la1":30.2991,"la2":30.254,"lo1":-89.0895,"lo2":-89.0444,"dy":0.0017,"dx":0.0017,"nx":28,"ny":28,"refTime":"2024-08-26T21:00:00:Z","depth":"4","parameterNumber":3,"parameterNumberName":"V-component_of_CURRENTS"},"data":[0,0,0,0,0,0,0,0,0,0,0,0,0,0,0,0,0,0,0,0,0,0,0,0,0,0,0,0,0,0,0,0,0,0,0,0,0,0,0,0,0,0,0,0,0,0,0,0,0,0,0,0,0,0,0,0,0,0,0.0224,0.0224,0,0.0188,0.0187,0.0187,0.0172,0.0172,0.0172,0.0173,0.0113,0.0112,0.011,0,0,0,0,0,0,0,0,0,0,0,0,0,0.0251,0.0251,0.0224,0.0224,0.0223,0.0188,0.0187,0.0187,0.0172,0.0172,0.0172,0.0173,0.0114,0.0112,0.011,0,0,0,0,0,0,0,0,0,0,0,0,0,0.0229,0.0251,0.0224,0.0212,0.021,0.0188,0.0187,0.0186,0.0172,0.0172,0.0173,0.0173,0.0114,0.0112,0.0109,0.0091,0,0,0.0102,0.0101,0,0,0,0,0,0,0,0,0.0231,0.0228,0.0214,0.0213,0.0211,0.0185,0.0175,0.0153,0.0172,0.0186,0.0173,0.0173,0.0135,0.0131,0.0124,0.0088,0.0085,0.0101,0.01,0.0099,0.0098,0,0,0,0,0,0,0,0.0232,0.023,0.0209,0.0214,0.0212,0.0198,0.0195,0.0171,0.016,0.0185,0.0184,0.018,0.0134,0.0126,0.0122,0.0084,0.0102,0.0099,0.0098,0.0097,0.0039,0.0039,0,0,0,0,0,0,0.0239,0.0231,0.0211,0.0208,0.0222,0.0197,0.0194,0.0193,0.016,0.0156,0.018,0.018,0.013,0.0125,0.012,0.0111,0.0099,0.0097,0.0095,0.0039,0.0039,0.0039,0,0,0,0,0,0,0.0239,0.0237,0.0212,0.0219,0.0215,0.0197,0.0195,0.0192,0.0187,0.0157,0.0152,0.0178,0.013,0.0123,0.0103,0.0108,0.0095,0.0093,0.0039,0.0039,0.0039,0.0084,0,0,0,0,0,0,0.024,0.0238,0.0238,0.022,0.0215,0.0203,0.0195,0.0191,0.0184,0.0183,0.0153,0.0148,0.013,0.0107,0.01,0.0105,0.0091,0.0039,0.0039,0.0039,0.0083,0.0086,0.0088,0,0,0,0,0,0.0241,0.0244,0.0238,0.0235,0.0216,0.0203,0.0199,0.0187,0.0184,0.0182,0.0164,0.0149,0.0102,0.0105,0.0097,0.0101,0.0039,0.0039,0.0039,0.0082,0.0085,0.0088,0,0,0,0,0,0,0.0252,0.0242,0.0235,0.0233,0.022,0.0201,0.0199,0.0189,0.0173,0.0174,0.0146,0.014,0.0124,0.0104,0.0107,0.0084,0.0069,0.0067,0.0104,0.0107,0.011,0.0126,0.0089,0,0,0,0,0,0.0255,0.0258,0.0241,0.0239,0.0235,0.0217,0.021,0.0202,0.0185,0.0179,0.0159,0.0137,0.0116,0.0106,0.0083,0.0069,0.0047,0.0066,0.0069,0.0072,0.0079,0.0052,0.0054,0.0039,0.0039,0.0039,0,0,0.0258,0.0253,0.0254,0.0242,0.0232,0.0229,0.0213,0.0207,0.0207,0.0174,0.0168,0.0144,0.0114,0.01,0.0092,0.0086,0.0063,0.0072,0.0074,0.008,0.0052,0.0054,0.0055,0.0039,0.0039,0.0039,0,0,0.0268,0.0262,0.0268,0.026,0.0249,0.024,0.024,0.0223,0.0218,0.0204,0.0184,0.0167,0.0132,0.0118,0.0105,0.0108,0.0077,0.0098,0.0126,0.01,0.0101,0.0102,0.0072,0.0069,0.0101,0.0101,0.0101,0,0.0273,0.0277,0.0266,0.0268,0.0268,0.0248,0.0254,0.0243,0.0222,0.0222,0.0208,0.017,0.0143,0.0133,0.0134,0.0116,0.0092,0.0118,0.0105,0.0105,0.0105,0.0074,0.0071,0.0103,0.0103,0.0103,0.0103,0,0.0284,0.0288,0.0291,0.0292,0.0289,0.0291,0.0279,0.0276,0.0267,0.0255,0.0243,0.0208,0.019,0.0175,0.0154,0.0145,0.0125,0.0111,0.01,0.011,0.0075,0.0072,0.0106,0.0106,0.0105,0.0104,0,0,0.0297,0.03,0.0302,0.0313,0.0305,0.0309,0.0311,0.0311,0.0324,0.0293,0.0303,0.0263,0.0248,0.0231,0.0204,0.018,0.0155,0.0149,0.0147,0.0126,0.0092,0.0064,0.0057,0.0138,0.0138,0.0137,0.0066,0,0.0311,0.0329,0.0325,0.0346,0.0356,0.0348,0.0357,0.0354,0.0348,0.0351,0.0315,0.0309,0.0268,0.0265,0.0233,0.0176,0.0147,0.0175,0.008,0.0077,0.0057,0.0052,0.0136,0.0063,0.0062,0.0061,0.0061,0,0.0325,0.0338,0.0362,0.0387,0.0393,0.0405,0.0431,0.0435,0.0429,0.0425,0.0409,0.0378,0.0342,0.0307,0.0215,0.0233,0.0169,0.012,0.0115,0.0073,0.0042,0.0051,0.0053,0.0054,0.0054,0.0055,0.0055,0,0.0347,0.0368,0.0394,0.0399,0.0419,0.044,0.0455,0.0462,0.0484,0.0478,0.0487,0.0433,0.0414,0.0327,0.0217,0.0216,0.011,0.0095,0.0008,0.0005,0.0033,0.0032,0.0031,0.0031,0.0031,0.0032,0.0032,0,0.0364,0.0387,0.0413,0.0427,0.0477,0.0478,0.053,0.0536,0.0556,0.0582,0.0533,0.0531,0.0418,0.034,0.0235,0.0106,0.0119,0.0013,-0.0014,0.0052,0.0054,0.0029,0.003,0.0029,0.0029,0.003,0.003,0,0.0381,0.0392,0.043,0.0466,0.0488,0.0526,0.0587,0.062,0.063,0.0664,0.0664,0.0606,0.0497,0.0371,0.0226,0.0134,0.0011,-0.0038,0.004,0.0019,-0.008,-0.0077,-0.0137,-0.0139,-0.014,-0.0141,-0.0142,0,0.039,0.041,0.0466,0.05,0.0523,0.0583,0.0626,0.0659,0.0697,0.0702,0.0717,0.0632,0.0569,0.0349,0.0208,0.0004,-0.0027,-0.0091,-0.0085,-0.0077,-0.0097,-0.0091,-0.0086,-0.0144,-0.0145,-0.0145,-0.0145,0,0.0412,0.0433,0.0466,0.0535,0.0592,0.0656,0.072,0.0752,0.0781,0.0791,0.0756,0.0641,0.0517,0.0343,0.0184,0.0037,-0.0049,-0.0105,-0.0103,-0.0098,-0.0087,-0.0104,-0.0097,-0.015,-0.0149,-0.0149,-0.0149,0,0.0435,0.0462,0.0508,0.0569,0.0641,0.0706,0.0739,0.0774,0.0809,0.0809,0.079,0.0655,0.0582,0.0359,0.0211,0.0063,0.0024,-0.0023,-0.0026,-0.0023,0.0027,0.0059,0.0019,0,0,0,0,0,0.0452,0.048,0.0537,0.0604,0.0673,0.0718,0.0791,0.0815,0.0841,0.0821,0.081,0.0689,0.0466,0.0374,0.0221,0.0177,-0.0006,-0.0009,-0.0062,-0.0175,-0.017,-0.0135,0,0,0,0,0,0,0.0462,0.0513,0.0536,0.0622,0.0669,0.0753,0.08,0.0817,0.0809,0.0807,0.0694,0.0642,0.0429,0.0551,0.0214,0.017,0.0113,-0.0108,-0.0112,-0.0178,-0.0173,-0.0169,-0.0131,0,0,0,0,0]}]]